Regional Weather Roundup
Issued by NWS Wakefield, VA

Home | Current Version | Previous Version | Text Only | Print | Product List | Glossary On
Versions: 1 2 3 4 5 6 7 8 9 10 11 12 13 14 15 16 17 18 19 20 21 22 23 24 25 26 27
000
ASUS41 KAKQ 240515
RWRAKQ

REGIONAL WEATHER ROUNDUP
NATIONAL WEATHER SERVICE WAKEFIELD VA
100 AM EDT MON APR 24 2017

Note: "fair" indicates few or no clouds below 12,000 feet with no
significant weather and/or obstructions to visibility. * = Denotes
station may not report precipitation (e.g., rain,snow,etc.),
thunder or fog.

VAZ042-051-052>054-056-240600-
NORTHERN VIRGINIA

CITY           SKY/WX    TMP DP  RH WIND       PRES   REMARKS
WASH NATIONAL  CLOUDY    57  47  69 E7        30.10F
DULLES         CLOUDY    53  45  74 E3        30.09F
FORT BELVOIR   CLOUDY    52  49  89 CALM      30.10S
QUANTICO       CLOUDY    56  50  80 E9        30.10S
FREDERICKSBRG* CLOUDY    54  51  88 NE5       30.08S
STAFFORD*      DRIZZLE   53  51  94 CALM      30.13S
WARRENTON      LGT RAIN  53  48  83 NE3       30.08F
CULPEPER*      DRIZZLE   52  51  98 CALM      30.10F
MANASSAS*        N/A     53  48  83 CALM      30.10S
LEESBURG*      CLOUDY    54  48  82 NE3       30.10F
WINCHESTER     CLOUDY    48  45  87 CALM      30.09S
FRONT ROYAL*   CLOUDY    52  45  76 SE6       30.08R
LURAY*         CLOUDY    50  46  87 CALM      30.08S
$$

VAZ048-049-060>072-079>083-240600-
CENTRAL AND SOUTH CENTRAL VIRGINIA

CITY           SKY/WX    TMP DP  RH WIND       PRES   REMARKS
RICHMOND       CLOUDY    52  52 100 NE8       30.04F
CHESTERFIELD*  CLOUDY    54  36  50 NE6       30.06F
PETERSBURG*    RAIN      51  49  93 NE3       30.05S
HANOVER        CLOUDY    52  49  89 N3        30.07F
TAPPAHANNOCK*  CLOUDY    52  51  97 N5        30.07F
QUINTON*       CLOUDY    52  52 100 NE6       30.05F
CHARLOTTSVILLE LGT RAIN  51  49  92 N3        30.07F
GORDONSVILLE*  CLOUDY    51  50  99 CALM      30.07F
ORANGE*        LGT RAIN  50  48  93 CALM      30.08F
LOUISA*        CLOUDY    55  54  94 NE3       30.06F
BUMPASS*       CLOUDY    51  51 100 CALM      30.08S
FARMVILLE*     CLOUDY    51  51 100 NE7       30.04S
CREWE*         CLOUDY    51  51 100 CALM      30.03F
FORT PICKETT*  CLOUDY   N/A N/A N/A NE7       30.03F
CHASE CITY*    CLOUDY    50  49  95 NE6       30.00F
CLARKSVILLE*   CLOUDY    50  50 100 E8G18     29.99F
SOUTH HILL*    CLOUDY    50  50 100 NE3       30.07S
LAWRENCEVILLE* CLOUDY    51  50  97 NE6       30.02S
EMPORIA*       CLOUDY    52  50  93 N3        30.03F FOG
$$

VAZ088>098-240600-
SOUTHEAST VIRGINIA

CITY           SKY/WX    TMP DP  RH WIND       PRES   REMARKS
NORFOLK        CLOUDY    56  53  90 NE13G23   30.02F
VIRGINIA BEACH CLOUDY    54  51  90 NE12      30.01S
NORFOLK NAVAL  DRIZZLE   56  53  90 NE15G21   30.03F
WEST POINT*    CLOUDY    53  51  92 N3        30.06S
SALUDA*        CLOUDY    55  51  87 E9        30.05F
NEWPORT NEWS   LGT RAIN  54  52  93 NE13      30.03F
LANGLEY AFB    CLOUDY    54  53  97 E15       30.03S
FORT EUSTIS    CLOUDY    54  52  94 E8        30.01S
WILLIAMSBURG*  CLOUDY    55  55 100 CALM      30.04F
HR EXEC AP*    CLOUDY    54  50  87 E10G16    30.01F
FRANKLIN*      CLOUDY    53  51  94 NE8       30.02F
US460-WAKEFLD  CLOUDY    53  52  96 VRB6      30.02F
$$

VAZ020-022-025-037-045-240600-
WEST CENTRAL AND SOUTHWEST VIRGINIA

CITY           SKY/WX    TMP DP  RH WIND       PRES   REMARKS
STAUNTON*      DRIZZLE   48  45  90 CALM      30.09S
WAYNESBORO*    CLOUDY    47  46  96 CALM      30.07S
HOT SPRINGS VA HVY RAIN  39  37  93 E9G16     30.02F VSB<1/4
LYNCHBURG      LGT RAIN  48  47  96 NE13      30.04F
DANVILLE       LGT RAIN  50  50 100 NE13      29.99F
SOUTH BOSTON*  CLOUDY    51  49  95 NE5       30.00F
MARTINSVILLE   LGT RAIN  48  46  95 N6        30.02F
ROANOKE        RAIN      48  47  96 N6        30.05F
BLACKSBURG     HVY RAIN  45  43  93 E9        30.04F
DUBLIN*        HVY RAIN  46  43  90 NE7       30.02F
MARION*        LGT RAIN  44  43  96 CALM      30.00F
HILLSVILLE*    RAIN      43  43 100 NE5       29.96S
RICHLANDS*     DRIZZLE   46  45  97 E7        29.94F
WISE*          RAIN      46  46 100 NE5       29.89F
ABINGDON*      LGT RAIN  47  46  96 E14       29.93F
$$

MDZ021>025-VAZ099-100-240600-
SOUTHERN MARYLAND AND THE DELMARVA PENINSULA

CITY           SKY/WX    TMP DP  RH WIND       PRES   REMARKS
PATUXENT RIVER CLOUDY    52  49  89 E10       30.09S
BAY BRIDGE APT CLOUDY    54  45  71 E6        30.10F
LEONARDTOWN    CLOUDY    50  46  87 E3        30.10F
DOVER          CLOUDY    51  51 100 E5        30.10S
GEORGETOWN     CLOUDY    51  46  83 MISG      30.11F
EASTON         PTCLDY    52  45  76 E3        30.14F
CAMBRIDGE      MOCLDY    50  46  87 NE3       30.10F
SALISBURY      CLOUDY    50  49  96 NE5       30.09F
OCEAN CITY     CLOUDY    51  48  89 E7        30.09F
WALLOPS ISLAND LGT RAIN  52  47  83 NE16      30.06F
ACCOMACK*      DRIZZLE   53  48  84 E12       30.05F
$$

NCZ012>017-030>032-240600-
NORTH CENTRAL AND EASTERN NORTH CAROLINA

CITY           SKY/WX    TMP DP  RH WIND       PRES   REMARKS
ROANOKE RAPIDS CLOUDY    52  52 100 NE6       30.00F
RALEIGH        DRIZZLE   53  52  96 E10       29.95F FOG
ELIZABETH CITY CLOUDY    58  57  97 NE15      29.99F
AHOSKIE*       LGT RAIN  51  51  97 NE6       30.00F
EDENTON*       CLOUDY    58  55  88 NE8       29.98F
CURRITUCK*     CLOUDY    57  57 100 NE14G20   30.00F
KILL DEVIL HLS CLOUDY    58  57  96 NE6       29.94F
MANTEO         CLOUDY    58  56  92 E16G23    29.95F
CAPE HATTERAS  CLOUDY    63  61  93 NE7       29.92F FOG
TARBORO*       NOT AVBL
GOLDSBORO      CLOUDY    55  55 100 NE9       29.93F FOG
WASHINGTON     CLOUDY    57  56  96 NE7       29.96F
GREENVILLE     CLOUDY    55  55 100 NE7       29.98F
NEW BERN       CLOUDY    59  58  96 NE7       29.94F
WILMINGTON     CLOUDY    61  61 100 VRB7      29.88F
$$

VAZ048-240600-
ELSEWHERE

CITY           SKY/WX    TMP DP  RH WIND       PRES   REMARKS
HARRISBURG PA  PTCLDY    50  45  83 CALM      30.09F
BALTIMORE      CLOUDY    53  49  86 E6        30.10S
ANNAPOLIS      CLOUDY    56  49  77 E6        30.09F
ANDREWS AFB    CLOUDY    53  47  82 E3        30.08F
PHILADELPHIA   CLOUDY    51  45  79 CALM      30.13F
HENDERSON NC   CLOUDY    49  48  97 NE12      29.98F FOG
GREENSBORO     LGT RAIN  50  50 100 NE13G22   29.94F FOG
ROCKY MOUNT    CLOUDY    53  53 100 NE7       29.97F
$$

VAZ100-240600-
MARINE

STATION/POSITION TIME  TEMP    WIND        PRES    WAVE   SWELL
                       AIR SEA DIR/SP/G            HT/PER HT/PER
                 (UTC) (F)     (DEG/KT/KT) (MB)    (FT/S) (FT/S)
CAPE MAY NJ      0448   51 56   60/  3/  5 1019.5F
LEWES DE         0448   52 55  100/  7/  8   N/A
15NM E FENWICK I 0450   51 52   60/ 12/ 16 1019.4F   5/11   3/11
OCEAN-CITY-INLET 0448   52 55   80/  5/  8 1019.4F
WACHAPREAGUE VA  0448   54 60   40/ 13/ 18 1017.1F
THOMAS POINT MD  0500   55 57  110/  9/ 10   N/A
GOOSES REEF MD   0500   54 54  120/ 12/ 14 1019.5    1/ 2
COVE POINT MD    0448   52     110/  8/ 11 1019.6F
SOLOMONS ISLAND  0448   54 61   80/ 10/ 13   N/A
BISHOPS HEAD MD  0448   52 61   60/ 11/ 15 1018.8F
PINEY POINT MD   0448           80/  7/  9   N/A
POTOMAC MD       0500   55 61   80/ 14/ 16 1017.3    2/ 3
CAMBRIDGE MD     0448   53 64   80/  7/  9 1018.6F
LEWISETTA VA     0448   56 62   90/ 15/ 17 1017.9F
RAPPAHANNOCK LGT 0448           50/ 13/ 15 1018.0F
STINGRAY PT      0500   55 61   90/ 16/ 19 1017.7    2/ 3
YORK RVR RNG VA  0448   54      80/ 19/ 22 1016.3F
YORKTOWN VA      0448   56 64   80/ 19/ 21 1016.6F
JAMESTOWN VA     0500   54 68   70/  6/ 12   N/A     0
DOMINION TERM VA 0448   55      60/ 10/ 15 1016.7F
KIPTOPEKE VA     0448      61   70/ 13/ 16   N/A
CHES BAY BRIDGE  0448   55 61   50/ 19/ 22 1016.1F
CAPE HENRY VA    0448   54      30/ 15/ 19   N/A
WILLOUBY STN VA  0448   55      50/ 17/ 20 1017.6F
S CRANEY ISL VA  0448   55      60/ 14/ 19 1016.4F
CAPE HENRY BUOY  0442      55                N/A     5/ 8   2/11
1ST LANDING BUOY 0500   55 60              1017.2    3/ 4
CAPE CHARLES BUO 0451      57                N/A     5/ 5   2/11
64NM E OF VA BCH 0450   56 53   60/ 16/ 17 1015.4F   6/ 6   3/ 9
DUCK PIER NC     0448   57 62   40/ 19/ 21 1014.1F
44100 DUCK FRF   0435      54                N/A     6/ 5   2/11
44056 DUCK FRF   0500      59                N/A     6/ 6   2/12
OREGON INLET NC  0442   58 59   40/ 14/ 18 1013.6F
HATTERAS NC      0448   64 68   40/  7/ 11 1012.7F
DIAMOND SHLS NC  0450   72 78   50/  4/ 10 1012.8F   7/10   7/10
CAPE LOOKOUT NC  0500   65      20/ 13/ 15 1011.9F
$$




USA.gov is the U.S. government's official web portal to all federal, state and local government web resources and services.